カタログに戻る

THORAD DELTA 1 DEB

運用中SSO
NORAD 8142·DEBRIS·🇺🇸 United States

打ち上げ Nov 15, 1974 から Vandenberg Space Force Base

Loading…

次のパス (今後24時間)

TLE

最新Source: Space-Track

元期: Sep 14, 2026, 15:02 UTC

1 08142U 74089L   26257.62662828  .00022781  00000-0  10188+0 0  9992
2 08142 101.2756 146.3882 0470060 131.4028 261.7900 12.48855977293619

AllMySatでTHORAD DELTA 1 DEBをリアルタイム追跡

Download on the App Store